STARLINK-32836, 62965

Orbit data source: Space-Track

STARLINK-32836, 62965 is a payload satellite owned by SpaceX/Seattle (US) in LEO that was launched on Tue, 11 Feb 2025 UTC via an FALCON 9 launch vehicle from the Air Force Western Test Range (AFWTR). Payload-class satellites include a variety of spacecraft equipped with specific instruments for various scientific and technological missions. These include communications satellites like Starlink; space stations such as the ISS; scientific satellites like the Hubble; Earth observation satellites from companies like Planet Labs, Umbra, and HawkEye 360; GPS; miniature CubeSats for education and research; and military/defense satellites.

Loading next visibility...
Identifier
62965, 2025-029T
Orbit
LEO
Country
Flag of USUS
Related business
Manufacturer
SpaceX/Seattle
Mission
Operational Commercial Communications
Bus & Motor
STARLINK V2M, Unknown motor
Mass
730 kg wet, ~700 kg dry
Launch date (UTC)
2025-02-11 (1 year ago)
Launch vehicle
FALCON 9
Launch site
Air Force Western Test Range (AFWTR)
Object type
Payload
Rocket body
Debris
Shape & HBR
Box + 2 Pan, 17.7 m
Radar Cross Section
33.884 m², Large (>1 m²)

Expand to show TLE details & history
Last TLE update: 23 hours ago

TLE from 23 hours ago
0 STARLINK-32836
1 62965U 25029T   26170.88252423  .00028608  00000-0  85435-3 0  9998
2 62965  53.1593 114.9548 0001363  94.5630 265.5528 15.34409178 77007
Epoch: 2026-06-19T21:10Z
TLE epoch observation values (Epoch: 2026-06-19T21:10:50.093Z)
Latitude
-0.00005°
Longitude
-110.85908°
Altitude
463.65 km
Speed
7.636 km/s
True Right ascension
07h 39m 49s
True Declination
0° 00' 00"
Sunlit
Object was in daylight at epoch
Visualization orbit readout
Latitude
Unknown
Longitude
Unknown
Altitude
Unknown
Speed
Unknown
Apparent Right ascension
Unknown
Apparent Declination
Unknown
Sunlit
N/A
Visualization observer readout
Local Sidereal Time
07:15:03
Azimuth
Unknown
Elevation
Unknown
Doppler factor
Unknown
Orbital elements
Apogee altitude
463.865 km
Perigee altitude
462.001 km
Semi-major axis
6,841.07 km
Eccentricity
0.00014
Inclination
53.1593°
RAAN
114.9548°
Arg. of periapsis
94.563°
True anomaly
265.53723°
Mean anomaly
265.5528°
Eccentric anomaly
265.54501°
Mean motion
3.83581 °/min
Orbital period
93.85 mins
BSTAR
0.00085435
Loading maneuver chart data...
Computing Atmospheric mass density...
Loading historical data...
Loading historical data...
Loading historical data...
Loading historical data...
Loading historical data...
Loading historical data...
Loading historical data...

Documentation

Showing up to 5 results
|